This is the latest recevied weather packets stored in our database for station/object WA0GMH-1. If no packets are shown the sender has not sent any weather packets the latest 10 day(s).
| Time | Temp. | Humidity | Pressure | Rain* | Wind** | Luminosity | Snow |
|---|---|---|---|---|---|---|---|
| 1778141152 | 5.56° C | 1% | 1011 hPa | 0 mm | - | - | - |
| 1778140750 | 5.56° C | 100% | 1011.2 hPa | 0 mm | - | - | - |
| 1778140348 | 5.56° C | 100% | 1011.1 hPa | 0 mm | - | - | - |
| 1778139946 | 5.56° C | 100% | 1011.2 hPa | 0 mm | - | - | - |
| 1778139543 | 5.56° C | 100% | 1011.4 hPa | 0 mm | - | - | - |
| 1778139141 | 5.56° C | 100% | 1011.5 hPa | 0 mm | - | - | - |
| 1778138739 | 6.11° C | 2% | 1011.7 hPa | 0 mm | - | - | - |
| 1778138337 | 6.11° C | 100% | 1011.8 hPa | 0 mm | - | - | - |
| 1778137934 | 6.11° C | 100% | 1011.9 hPa | 0 mm | - | - | - |
| 1778137532 | 6.11° C | 100% | 1011.9 hPa | 0 mm | - | - | - |
| 1778137130 | 6.11° C | 100% | 1012 hPa | 0 mm | - | - | - |
| 1778136728 | 6.11° C | 84% | 1012.1 hPa | 0 mm | - | - | - |
| 1778135923 | 6.11° C | 100% | 1012.2 hPa | 0 mm | - | - | - |
| 1778135521 | 6.11° C | 84% | 1012.2 hPa | 0 mm | - | - | - |
| 1778135119 | 6.11° C | 85% | 1012.1 hPa | 0 mm | - | - | - |
| 1778134716 | 6.11° C | 84% | 1012.4 hPa | 0 mm | - | - | - |
| 1778134315 | 6.11° C | 83% | 1012.6 hPa | 0 mm | - | - | - |
| 1778133912 | 6.11° C | 83% | 1012.6 hPa | 0 mm | - | - | - |
| 1778133510 | 6.67° C | 82% | 1012.8 hPa | 0 mm | - | - | - |
| 1778133107 | 6.11° C | 81% | 1012.8 hPa | 0 mm | - | - | - |
| 1778132705 | 6.67° C | 82% | 1012.9 hPa | 0 mm | - | - | - |
| 1778132303 | 6.67° C | 81% | 1013 hPa | 0 mm | - | - | - |
| 1778131901 | 6.67° C | 80% | 1012.9 hPa | 0 mm | - | - | - |
| 1778131498 | 6.67° C | 79% | 1013 hPa | 0 mm | - | - | - |
| 1778131096 | 6.67° C | 79% | 1012.9 hPa | 0 mm | - | - | - |
* Rain since midnight (hover to see other rain measurements)
** Current wind speed in m/s (hover to see current wind gust speed)